Location: Aufkirchen
(47.9603°N, 11.3653°E)
Time: 00:55:28
(UTC+01:00)

S-56A Canister/Altair - All Passes

Search period start: 06 December 2020 00:00
Search period end: 16 December 2020 00:00
Orbit: 632 x 2500 km, 38.9° (Epoch: 05 December)

Date Brightness Start Highest point End Pass type
(mag) Time Alt. Az. Time Alt. Az. Time Alt. Az.
06 Dec - 14:28:13 10° SSE 14:35:12 15° SE 14:41:41 10° ESE daylight
06 Dec - 16:27:00 10° SSW 16:39:25 35° SSE 16:49:21 10° E daylight
06 Dec - 18:31:21 10° WSW 18:44:17 51° S 18:53:26 10° E visible
06 Dec - 20:37:41 10° W 20:48:47 47° SSW 20:56:17 10° ESE visible
06 Dec - 22:44:48 10° W 22:51:53 24° SW 22:57:12 10° SSE visible
07 Dec - 13:56:31 10° SSE 14:02:07 13° SE 14:07:27 10° ESE daylight
07 Dec - 15:53:49 10° SSW 16:06:10 33° SSE 16:16:25 10° E daylight
07 Dec - 17:57:45 10° WSW 18:11:06 51° S 18:20:50 10° E visible
07 Dec - 20:03:57 10° W 20:15:49 50° SSW 20:23:55 10° ESE visible
07 Dec - 22:10:59 10° W 22:19:15 28° SW 22:25:16 10° SSE visible
08 Dec - 13:25:47 10° SE 13:29:04 11° SE 13:32:16 10° ESE daylight
08 Dec - 15:20:46 10° SSW 15:32:55 31° SSE 15:43:23 10° E daylight
08 Dec - 17:24:11 10° SW 17:37:51 50° SSE 17:48:09 10° E visible
08 Dec - 19:30:13 10° WSW 19:42:47 52° S 19:51:29 10° ESE visible
08 Dec - 21:37:12 10° W 21:46:33 32° SSW 21:53:13 10° SSE visible
09 Dec - 14:47:50 10° SSW 14:59:40 29° SE 15:10:13 10° E daylight
09 Dec - 16:50:42 10° SW 17:04:33 49° SSE 17:15:22 10° E visible
09 Dec - 18:56:29 10° WSW 19:09:40 54° S 19:18:58 10° ESE visible
09 Dec - 21:03:24 10° W 21:13:46 37° SSW 21:21:05 10° SE visible
09 Dec - 23:13:06 10° WSW 23:16:01 12° SW 23:18:38 10° SSW visible
10 Dec - 14:15:03 10° S 14:26:25 27° SE 14:36:55 10° E daylight
10 Dec - 16:17:17 10° SW 16:31:13 48° SSE 16:42:31 10° E daylight
10 Dec - 18:22:47 10° WSW 18:36:29 56° S 18:46:24 10° ESE visible
10 Dec - 20:29:35 10° W 20:40:54 41° SSW 20:48:51 10° SE visible
10 Dec - 22:38:13 10° W 22:43:28 15° SW 22:47:50 10° SSW visible
11 Dec - 13:42:26 10° S 13:53:12 25° SE 14:03:28 10° E daylight
11 Dec - 15:43:57 10° SW 15:57:51 46° SSE 16:09:36 10° E daylight
11 Dec - 17:49:07 10° WSW 18:03:12 57° S 18:13:45 10° ESE visible
11 Dec - 19:55:48 10° W 20:07:56 45° SSW 20:16:32 10° SE visible
11 Dec - 22:03:54 10° W 22:10:52 19° SW 22:16:24 10° S visible
12 Dec - 13:10:01 10° S 13:20:00 22° SE 13:29:49 10° E daylight
12 Dec - 15:10:44 10° SW 15:24:27 44° SSE 15:36:34 10° E daylight
12 Dec - 17:15:30 10° WSW 17:29:53 57° S 17:41:02 10° ESE visible
12 Dec - 19:22:00 10° W 19:34:53 48° SSW 19:44:07 10° SE visible
12 Dec - 21:29:45 10° W 21:38:11 23° SW 21:44:41 10° S visible
13 Dec - 12:37:48 10° S 12:46:51 20° SE 12:55:57 10° E daylight
13 Dec - 14:37:37 10° SW 14:51:04 42° SSE 15:03:26 10° E daylight
13 Dec - 16:41:57 10° WSW 16:56:29 57° S 17:08:13 10° E visible
13 Dec - 18:48:15 10° W 19:01:44 51° SSW 19:11:38 10° SE visible
13 Dec - 20:55:43 10° W 21:05:25 27° SW 21:12:46 10° SSE visible
14 Dec - 12:05:54 10° SSE 12:13:45 17° SE 12:21:48 10° E daylight
14 Dec - 14:04:38 10° SSW 14:17:41 39° SSE 14:30:12 10° E daylight
14 Dec - 16:08:29 10° WSW 16:23:03 56° S 16:35:20 10° E daylight
14 Dec - 18:14:31 10° W 18:28:31 54° SSW 18:39:03 10° ESE visible
14 Dec - 20:21:45 10° W 20:32:34 31° SW 20:40:41 10° SSE visible
15 Dec - 11:34:27 10° SSE 11:40:43 14° SE 11:47:12 10° E daylight
15 Dec - 13:31:46 10° SSW 13:44:19 37° SSE 13:56:52 10° E daylight
15 Dec - 15:35:06 10° WSW 15:49:34 55° SSE 16:02:20 10° E daylight
15 Dec - 17:40:51 10° W 17:55:12 56° S 18:06:24 10° ESE visible
15 Dec - 19:47:51 10° W 19:59:38 35° SW 20:08:29 10° SSE visible
15 Dec - 21:59:17 10° WSW 22:01:58 11° SW 22:04:28 10° SW visible
